Find Starlink 30969

NORAD ID: 58438 Int'l Des: 2023-183 Owner: SPXS Country: US Constellation: starlink operational
LEOCIRCULAR

Current View

Loading 3D Globe...

About Starlink 30969

Starlink 30969 (NORAD 58438) is a starlink constellation satellite (v2 mini) launched Nov 28, 2023 by SPXS of US. It operates in LEO, CIRCULAR orbit with a mass of 730.00 kg.

About Starlink 30969

Description loading...

Upcoming Passes

Passes for default location (London). Set your location on the main map for personalized predictions.

Altitude History

Loading altitude history...

Two-Line Element Set

1 58438U 23183B 26166.83279874 -.00004502 00000-0 -15410-3 0 9991
2 58438 43.0161 207.3972 0002660 265.2094 94.8454 15.27589163141745
Epoch: Jun 15, 2026 • Age: 12 hours

Current Status

Altitude 483.9 km
Velocity 7.63 km/s
Sub-Earth Point 24.39°N, 22.75°W
Launch Date Nov 28, 2023
Age 2.5 years
Type internet

Technical Details

Classification Payload
Mass 730.00 kg
Dry Mass 700.00 kg
Total Mass 730.00 kg
Length 0.30 m
Diameter 4.10 m
Span 29.00 m
Shape Box + pan
Manufacturer SPXS
Bus Type Starlink V2M
Phase Status In Orbit
Owner/State SPXS/US

Most Searched